Flag for U.S.A. Weather past 2 weeks in San Francisco, California, U.S.A.

Now
54 °F

Scattered clouds.


Feels Like: 50 °F
Forecast: 54 / 66 °F
Wind: 15 mph from West

Location: San Francisco International Airport

Current Time: May 29, 2015 at 10:05:45 PM

Latest Report: May 29, 2015 at 8:56 PM


Visibility: 10 mi

Pressure: 29.96 "Hg

Humidity: 83%

Dew point: 49 °F

Location of San FranciscoLocation

Historic Weather in San Francisco — Graph

°F

San Francisco temperature yesterday

Maximum temperature yesterday: 62 °F (at 1:56 PM)
Minimum temperature yesterday: 53 °F (at 4:56 AM)
Average temperature yesterday: 56 °F

Past Weeks' High & Low Weather Summary

 TemperatureHumidityPressure
High66 °F (May 21, 2:56 PM)90% (May 21, 6:56 AM)30.12 "Hg (May 21, 6:56 AM)
Low52 °F (May 24, 4:56 AM)58% (May 15, 12:56 PM)29.82 "Hg (May 14, 7:56 PM)
Average57 °F75%30.01 "Hg
* Reported May 14 7:56 PM — May 29 7:56 PM, San Francisco, Weather by CustomWeather, © 2015

Note: Actual official high and low records may vary slightly from our data, if they occured in-between our weather recording intervals... More about our weather records

Advertising

San Francisco weather history for previous 24 hours

 ConditionsComfort  
Time TempWeatherWind HumidityBarometerVisibility
7:56 PM
Fri, May 29
55 °FBroken clouds.17 mph80%29.96 "Hg10 mi
6:56 PM56 °FBroken clouds.22 mph77%29.95 "Hg10 mi
5:56 PM57 °FPartly sunny.23 mph78%29.94 "Hg10 mi
4:56 PM59 °FBroken clouds.25 mph75%29.95 "Hg10 mi
3:56 PM61 °FBroken clouds.22 mph70%29.96 "Hg10 mi
2:56 PM61 °FBroken clouds.17 mph67%29.97 "Hg10 mi
1:56 PM60 °FBroken clouds.17 mph69%29.99 "Hg10 mi
12:56 PM61 °FBroken clouds.18 mph67%30.00 "Hg10 mi
11:56 AM62 °FBroken clouds.15 mph65%30.01 "Hg10 mi
10:56 AM57 °FPartly sunny.8 mph78%30.01 "Hg10 mi
9:56 AM56 °FPartly sunny.12 mph77%30.01 "Hg10 mi
8:56 AM55 °FMostly cloudy.7 mph83%30.00 "Hg10 mi
7:56 AM54 °FMostly cloudy.5 mph83%30.00 "Hg10 mi
6:56 AM54 °FMostly cloudy.8 mph86%29.99 "Hg10 mi
5:56 AM54 °FMostly cloudy.3 mph86%29.98 "Hg10 mi
4:56 AM54 °FMostly cloudy.7 mph86%29.98 "Hg10 mi
3:56 AM54 °FMostly cloudy.8 mph86%29.99 "Hg10 mi
2:56 AM54 °FMostly cloudy.14 mph86%30.00 "Hg10 mi
1:56 AM54 °FMostly cloudy.13 mph86%30.01 "Hg10 mi
12:56 AM54 °FMostly cloudy.10 mph86%30.01 "Hg10 mi
11:56 PM
Thu, May 28
53 °FMostly cloudy.12 mph89%30.01 "Hg10 mi
10:56 PM53 °FMostly cloudy.16 mph86%30.02 "Hg10 mi
Weather by CustomWeather, © 2015

See weather overviewHow to use our weather pages